Notices

What's New in latest Release from April 7th, 2021:

- Updated Glossary, including Speed of Maximum Gust, and Total Hourly Precipitation

- Updated national and regional climate services offices contacts and prices information

- Addition of station inventory lists for 1981-2010, 1971-2000, and 1961-1990 Normals.

If you haven't already, please take our survey and provide feedback about our website: https://eccc.sondage-survey.ca/f/LanguageSelection.aspx?s=442ca660-fcf1-47c0-95a9-59707d6fd709

Hourly Data Report for May 11, 2021

RESOLUTE BAY A
NUNAVUT
Current Station Operator: NAVCAN

74°43'01.000" N
94°58'10.000" W
67.70 m
2403498
71924
YRB

Download Data

Hourly Data (May 2021)
Hourly Data Report for May 11, 2021
TIME
LST
Temp Definition
°C
Dew Point Definition
°C
Rel Hum Definition
%
Precip. Amount Definition
mm

Wind Dir Definition
10's deg

Wind Spd Definition
km/h
Visibility Definition
km
Stn Press Definition
kPa
Hmdx Definition


Wind Chill Definition


Weather Definition


00:00 -20.6 -23.2 80   26 7 48.3 101.14   -26 Ice Crystals
01:00 -21.3 -24.1 79   32 14 40.2 101.14   -30 Ice Crystals
02:00 -22.2 -25.1 78   33 18 40.2 101.13   -33 Ice Crystals
03:00 -22.1 -25.1 77   34 20 40.2 101.13   -33 Ice Crystals
04:00 -21.5 -24.4 78   34 17 40.2 101.12   -32 Ice Crystals
05:00 -20.6 -23.5 78   34 22 40.2 101.12   -32 Ice Crystals
06:00 -19.9 -22.8 78   34 20 12.9 101.13   -30 Snow
07:00 -19.4 -22.3 78   33 15 24.1 101.13   -28 Snow
08:00 -18.7 -21.6 78   33 16 19.3 101.14   -28 Snow
09:00 -17.9 -20.9 78   33 17 19.3 101.14   -27 Snow
10:00 -17.1 -20.8 73   36 27 19.3 101.16   -28 Snow
11:00 -16.8 -20.7 72   36 35 19.3 101.17   -29 LegendNANA
12:00 -16.4 -20.3 72   35 30 24.1 101.19   -28 Mostly Cloudy
13:00 -16.5 -20.4 72   35 32 24.1 101.21   -28 LegendNANA
14:00 -16.2 -20.6 69   35 32 24.1 101.24   -28 LegendNANA
15:00 -16.0 -20.4 70   34 29 24.1 101.25   -27 Mainly Clear
16:00 -15.8 -19.9 71   34 31 24.1 101.27   -27 LegendNANA
17:00 -16.0 -20.0 71   34 23 24.1 101.32   -26 LegendNANA
18:00 -16.5 -20.1 74   34 21 24.1 101.33   -26 Mainly Clear
19:00 -15.9 -19.3 75   31 18 24.1 101.35   -25 LegendNANA
20:00 -15.4 -19.7 70   33 26 32.2 101.34   -26 Snow
21:00 -15.6 -20.3 68   34 28 32.2 101.32   -26 Snow
22:00 -15.6 -19.8 71   33 21 32.2 101.32   -25 Snow
23:00 -15.9 -19.6 73   32 17 32.2 101.31   -25 Snow

Notes on Data Quality.

Legend

  • E = Estimated
  • M = Missing
  • NA = Not Available*
  • [empty] = Indicates an unobserved value
Date modified: